User: anonymous   Login
Location: *
(2.5500°S, 65.9667°W)
Time: 03:20:51
(UTC+00:00)
Language:

Altair - Orbit

View from above orbital plane
View from above orbital plane
View from above satellite
View from above satellite

Ground track
Ground track

The orbit data is extracted from the following two-line orbital elements,

1 00050U 60009B   24112.29511947 -.00000057  00000-0  26235-3 0  9992
2 00050  47.2310  84.1496 0113179 190.0338 169.8188 12.20139200841624
Epoch (UTC): 21 April 2024 07:04:58
Eccentricity: 0.0113179
inclination: 47.2310°
perigee height: 1502 km
apogee height: 1682 km
right ascension of ascending node: 84.1496°
argument of perigee: 190.0338°
revolutions per day: 12.20139200
mean anomaly at epoch: 169.8188°
orbit number at epoch: 84162

The dashed part of the orbit path shows where the satellite is in the earth's shadow,  

DLR